ATLAS 5 CENTAUR DEB, 43982

Orbit data source: Space-Track

ATLAS 5 CENTAUR DEB, 43982 is space debris in HEO originally from a launch on Wed, 17 Sep 2014 UTC launched from the Air Force Eastern Test Range (AFETR). Debris objects in space refer to the collection of defunct objects orbiting the Earth. Examples of debris include non-operational satellites, rocket bodies, and fragments generated from explosions, collisions, or faulty payload assembly.

Loading next visibility...
ATLAS 5 CENTAUR DEB details
Identifier
43982, 2014-055AM
Orbit
HEO
Last TLE update14 hours ago
Origin
Flag of USULA (US)
ManufacturerUnknown
MissionSpacecraft
Bus & MotorUnknown
MassUnknown
Launch date (UTC)
2014-09-17 (10 years ago)
Launch vehicleUnknown
Launch site
Air Force Eastern Test Range (AFETR)
Object type
Payload
Rocket body
Debris
Shape & HBRUnknown
Radar Cross SectionRCS unknown

Expand to show TLE details & history

TLE from 14 hours ago
0 ATLAS 5 CENTAUR DEB
1 43982U 14055AM  25044.23757258 -.00000037  00000-0  00000-0 0  9996
2 43982  19.9959 233.9447 4631335   9.4996 356.8870  1.75480170 41234
Epoch: 2025-02-13T05:42Z
Definitive object data (Epoch: 2025-02-13T05:42:06.27Z)
Latitude-0.00004°
Longitude4.87342°
Altitude9,306.527 km
Speed6.091 km/s
True Right ascension15h 35m 39s
True Declination0° 00' 00"
Sunlit
Object was in daylight at TLE epoch
Visualization TLE readout
Latitude15.86958°
Longitude56.18399°
Altitude10,717.631 km
Speed5.736 km/s
Apparent Right ascension17h 55m 23s
Apparent Declination2° 23' 26"
Sunlit
Object is in daylight
Visualization observer readout
Local Sidereal Time22:40:08
Azimuth259.529° W
Elevation15.898°
Doppler factor1
Orbital elements
Apogee altitude36,106.075 km
Perigee altitude9,210.564 km
Semi-major axis29,036.457 km
Eccentricity0.4631335
Inclination19.9959°
RAAN233.9447°
Arg. of periapsis9.4996°
True anomaly350.4556°
Mean anomaly356.887°
Eccentric anomaly354.21003°
Mean motion0.43866 °/min
BSTARUnknown
Orbital period820.68 mins
Loading maneuver chart data...

ATLAS 5 CENTAUR DEB Visibility forecast

Observer location: undefined°, undefined

Span
Click to sort rows by Start time (UTC) header in descending order
Start Az.
Max El. time (UTC)
Max El. Az.
Max El.
End time (UTC)
End Az.
746 mins2025-02-13 20:04:10.893Z259.486° W2025-02-13 21:38:10.893Z198.725° SSW40.727°2025-02-14 08:30:10.893Z147.175° SSE
|